Regional Weather Roundup
Issued by NWS Albany, NY

Home | Current Version | Previous Version | Graphics & Text | Print | Product List | Glossary Off
Versions: 1 2 3 4 5 6 7 8 9 10 11 12 13 14 15 16 17 18 19 20 21 22 23 24 25 26 27 28

000
ASUS41 KALY 211010
RWRALY

NEW YORK STATE HOURLY WEATHER ROUNDUP
NATIONAL WEATHER SERVICE ALBANY NY
600 AM EDT SAT OCT 21 2017

NOTE: "FAIR" INDICATES FEW OR NO CLOUDS BELOW 12,000 FEET WITH NO
SIGNIFICANT WEATHER AND/OR NO OBSTRUCTIONS TO VISIBILITY.

NYZ032-033-038>043-046>054-057>066-NYZ062>081-082-084-211100-
EAST


CITY           SKY/WX    TMP DP  RH WIND       PRES   REMARKS
ALBANY         CLEAR     42  36  79 CALM      30.28R
GLENS FALLS    CLEAR     34  32  92 CALM      30.26R FOG
POUGHKEEPSIE   PTCLDY    38  36  92 CALM      30.28R
NEWBURGH       CLEAR     45  39  81 NW6       30.29R
MONTGOMERY     CLEAR     40  38  93 CALM      30.28R
WHITE PLAINS   CLEAR     50  41  71 NW6       30.27R
ISLIP          PTCLDY    50  46  86 CALM      30.26R
NEW YORK CITY  PTCLDY    60  45  57 CALM      30.27R
CENTRAL PARK   CLEAR     57  36  45 CALM      30.30R
$$

NYZ005>009-017-018-044>046-055-056-211100-
CENTRAL


CITY           SKY/WX    TMP DP  RH WIND       PRES   REMARKS
FULTON         CLEAR     39  38  96 CALM      30.26R
SYRACUSE       PTCLDY    41  37  86 E5        30.27R
ROME           CLEAR     37  35  92 CALM      30.30R
ELMIRA         CLEAR     35  34  96 CALM      30.31R
BINGHAMTON     CLEAR     44  35  70 CALM      30.29R
MONTICELLO     CLEAR     38  35  89 N3        30.32R
$$

NYZ026>034-041>043-087-211100-
NORTH


CITY           SKY/WX    TMP DP  RH WIND       PRES   REMARKS
WATERTOWN      CLEAR     52  38  58 SW5       30.24R
FORT DRUM      NOT AVBL
OGDENSBURG     FAIR      50  42  74 S5        30.21R
MASSENA        CLEAR     52  40  63 SW8       30.20R
SARANAC LAKE   CLEAR     32  31  96 CALM      30.23R
PLATTSBURGH    CLEAR     47  42  83 CALM      30.19R
$$

NYZ001>004-010>016-019>021-085-211100-
WEST


CITY           SKY/WX    TMP DP  RH WIND       PRES   REMARKS
NIAGARA FALLS  CLEAR     46  41  82 CALM      30.24R
BUFFALO        PTCLDY    48  39  71 S9        30.25R
DUNKIRK        CLEAR     45  38  76 S3        30.26R
JAMESTOWN      CLOUDY    49  35  58 CALM      30.29R
WELLSVILLE     CLEAR     50  32  50 CALM      30.31R
ROCHESTER      CLEAR     48  40  73 SW8       30.26R
PENN YAN       CLEAR     44  39  82 W5        30.29R
$$

             KEY
       WCI = WIND CHILL INDEX
       VSB = VISIBILITY
       HX  = HEAT INDEX
$$




USA.gov is the U.S. government's official web portal to all federal, state and local government web resources and services.